Regional Weather Roundup
Issued by NWS

Home | Current Version | Previous Version | Text Only | Print | Product List | Glossary On
Versions: 1 2 3 4 5 6 7 8 9 10 11 12 13 14 15 16 17 18 19 20 21 22 23 24 25 26 27 28 29 30 31 32 33 34 35 36 37 38 39 40 41 42 43 44 45 46 47 48 49 50
000
ASUS45 KPSR 171310
RWRAZ

ARIZONA REGIONAL HOURLY WEATHER ROUNDUP
NATIONAL WEATHER SERVICE PHOENIX AZ
600 AM MST THU APR 17 2014

NOTE: FAIR INDICATES FEW OR NO CLOUDS BELOW 12,000 FEET WITH NO
SIGNIFICANT WEATHER AND/OR OBSTRUCTIONS TO VISIBILITY.

AZZ001>003-036-171400-
NORTHWEST ARIZONA

CITY           SKY/WX    TMP DP  RH WIND       PRES   REMARKS
BULLHEAD CITY  CLEAR     64  21  19 CALM      29.80R
KINGMAN        CLEAR     58  16  19 SE13      29.92R
$$

AZZ004>008-015-016-018-171400-
NORTH CENTRAL ARIZONA

CITY           SKY/WX    TMP DP  RH WIND       PRES   REMARKS
GRAND CANYON   CLEAR     26  16  65 NE3       30.10R
WILLIAMS       CLEAR     37  19  48 SE10      30.16R WCI  30
PRESCOTT       CLEAR     42  22  44 S6        30.02R
FLAGSTAFF      CLEAR     27  16  63 CALM      30.12R
PAYSON         CLEAR     54  18  24 SE5       30.06R
PAGE           CLEAR     48  25  40 CALM      30.03R
$$

AZZ009>014-017-171400-
NORTHEAST ARIZONA

CITY           SKY/WX    TMP DP  RH WIND       PRES   REMARKS
WINSLOW        CLEAR     36  20  52 S3        30.08R
SAINT JOHNS    CLEAR     39  14  36 SE5       30.08R
WINDOW ROCK    PTCLDY    28  16  60 CALM      30.13R
SHOW LOW       CLEAR     36  16  44 SE3       30.11S
$$

AZZ023-171400-
GREATER PHOENIX AREA

CITY           SKY/WX    TMP DP  RH WIND       PRES   REMARKS
PHOENIX        PTCLDY    65  25  22 E5        29.85R
BUCKEYE          N/A     57  19  23 N8        29.87R
GLENDALE       CLEAR     63  32  31 NW3       29.88
LUKE AFB       NOT AVBL
DEER VALLEY    CLEAR     60  22  23 CALM      29.88R
SCOTTSDALE     CLEAR     63  33  32 CALM      29.89R
MESA-FALCON    CLEAR     68  21  17 E8        29.87
MESA-GATEWAY   CLEAR     61  19  20 E8        29.90R
CHANDLER       CLEAR     59  28  31 NE9       29.87
$$

AZZ027-028-171400-
SOUTHWEST MARICOPA COUNTY AND PINAL COUNTY

CITY           SKY/WX    TMP DP  RH WIND       PRES   REMARKS
CASA GRANDE    CLEAR     55  21  26 CALM      29.89R
$$

AZZ503-504-507>509-171400-
SOUTHEAST ARIZONA

CITY           SKY/WX    TMP DP  RH WIND       PRES   REMARKS
TUCSON         CLEAR     59  19  21 SE10      29.96R
DAVIS-MONTHAN  CLEAR     56  20  24 SE7       29.95R
RYAN FIELD       N/A     54  19  26 SE5       29.95
NOGALES        CLEAR     46  24  42 NE5       30.00R
SIERRA VISTA   CLEAR     54  23  30 W6        30.03R
DOUGLAS        CLEAR     48  19  31 E6        30.03R
SAFFORD        CLEAR     51   5  15 CALM      29.96R
$$

AZZ020-021-025-026-031-171400-
SOUTHWEST ARIZONA

CITY           SKY/WX    TMP DP  RH WIND       PRES   REMARKS
YUMA           NOT AVBL
$$

CAZ031-033-041-043-047-048-061-171400-
SOUTHERN CALIFORNIA

CITY           SKY/WX    TMP DP  RH WIND       PRES   REMARKS
DOWNTOWN L.A.  CLOUDY    60  52  74 CALM      29.86S
L.A. AIRPORT   CLOUDY    60  52  74 SE3       29.87S
SAN DIEGO      CLOUDY    61  53  75 SE8       29.89R
BURBANK        CLOUDY    57  51  80 NE6       29.86S
ONTARIO        CLOUDY    56  53  90 W8        29.86R FOG
RIVERSIDE      CLOUDY    54  51  90 W6        29.87R
PALM SPRINGS   CLEAR     65  43  44 NW5       29.81R
EL CENTRO NAS  CLEAR     56  46  69 NE5       29.77
IMPERIAL       CLEAR     59  45  59 E5        29.77R
BLYTHE         CLEAR     62  23  22 N3        29.79R
NEEDLES        CLEAR     70  21  15 W8        29.80R
$$

NVZ020-UTZ003-171400-
SOUTHERN NEVADA-UTAH

CITY           SKY/WX    TMP DP  RH WIND       PRES   REMARKS
LAS VEGAS      PTCLDY    63  25  23 S10       29.83R
SALT LAKE CITY PTCLDY    39  21  48 SE9       30.04R WCI  33
$$

NMZ009-TXZ055-171400-
NEW MEXICO-WEST TEXAS

CITY           SKY/WX    TMP DP  RH WIND       PRES   REMARKS
ALBUQUERQUE    CLEAR     47  30  51 E18       30.09R
EL PASO        CLEAR     54   7  15 NE7       29.97R
$$


........................KEY........................
SKY/WX - SKY CONDITION/WEATHER
TMP    - TEMPERATURE IN FAHRENHEIT
DP     - DEW POINT IN FAHRENHEIT
RH     - RELATIVE HUMIDITY IN PERCENT
WIND   - DIRECTION AND SPEED IN MILES PER HOUR (MPH)
VRB    - VARIABLE WIND DIRECTION
PRES   - MEAN SEA LEVEL PRESSURE IN INCHES OF MERCURY
         F - FALLING PRESSURE   R - RISING PRESSURE
         S - STEADY PRESSURE
VSB    - VISIBILITY IN MILES
HX     - HEAT INDEX IN FAHRENHEIT
WCI    - WIND CHILL INDEX IN FAHRENHEIT
TC     - TEMPERATURE IN CELSIUS WHICH IS ALSO KNOWN AS
         TEMPERATURE IN CENTIGRADE
AFB    - AIR FORCE BASE
         LUKE AFB IS LUKE AIR FORCE BASE
         DAVIS-MONTHAN IS DAVIS-MONTHAN AIR FORCE BASE
NAS    - NAVAL AIR STATION
         EL CENTRO NAS IS EL CENTRO NAVAL AIR STATION
N/A    - NOT AVAILABLE



USA.gov is the U.S. government's official web portal to all federal, state and local government web resources and services.